ELEKTRO-L 2

Last updated on Jan. 28, 2020, 4:40 a.m. UTC

1 41105U 15074A   20027.93730477 -.00000100  00000-0  00000-0 0  9991
2 41105   0.8662  99.7847 0001043 264.1212 176.1604  1.00270618 15135
UTC
Height (km)
Latitude
Longitude
Inclination
Orbital Period
UTC large
Height (km)
Speed (km/s)
/
Latitude / Longitude
Inclination (degrees)
Orbital Period (minutes)
Azimuth
Elevation
Range (km)
Doppler Factor
iOS Compass Heading
iOS Angle

Next 30 passes for location: Hong Kong

Rise time Rise Azimuth (degrees) Set time Set Azimuth (degrees) Duration Max altitude (degrees)

No matching passes for this satellites